GFSFLT1_2pvu_pres_000.txt.gz
Presure
190 183 180 174 173 127 169 182 165 173 170 165 174 174 173 188 177 182 178 181 155 170 185 191 192 189 187 178 178 193 186 181
192 193 193 181 180 173 179 174 172 173 170 168 159 163 161 173 177 184 188 159 172 184 192 192 190 193 187 192 195 196 191 193
171 186 181 183 183 170 161 175 174 168 165 158 146 146 184 178 186 159 193 194 152 185 177 186 192 188 197 190 193 194 191 195
169 170 168 163 152 179 169 185 187 184 168 144 151 180 183 150 144 168 135 145 183 148 188 160 163 191 193 190 202 199 212 211
181 177 165 174 102 126 178 179 173 160 179 174 135 182 184 136 176 173 138 181 179 186 188 185 152 185 162 217 229 233 205 240
131 171 183 181 178 131 171 172 171 169 176 155 170 169 113 124 151 185 190 190 190 174 198 221 232 229 224 246 243 242 240 266
132 148 121 173 172 170 173 162 165 170 172 127 172 167 143 183 190 192 198 211 222 224 219 224 251 245 243 235 277 287 274 283
138 144 95 184 170 174 166 161 124 131 121 182 165 145 191 205 197 208 219 223 211 235 219 248 254 247 277 274 287 306 324 321
162 127 184 182 179 177 127 130 177 136 143 185 180 151 203 216 216 223 141 206 230 224 263 256 291 289 287 286 304 311 292 289
179 176 172 158 175 116 183 173 157 184 186 203 211 214 211 201 213 207 199 218 245 264 250 298 289 293 294 303 305 298 269 268
177 178 183 151 109 123 183 191 191 206 202 204 206 185 178 153 229 207 243 266 270 276 294 298 307 304 308 304 302 286 260 256
139 149 182 136 185 193 148 205 209 200 202 209 205 196 207 221 250 261 265 256 288 306 302 308 305 304 283 287 267 270 255 256
179 113 184 192 209 208 202 202 205 214 221 202 222 231 236 241 187 255 285 281 297 312 310 311 303 278 292 314 294 385 371 360
155 120 190 164 195 211 206 196 202 205 215 229 229 236 237 254 266 276 298 310 320 316 299 296 316 345 405 447 439 395 425 416
191 206 200 207 204 206 207 208 219 224 229 235 233 234 243 276 291 307 316 304 278 307 336 388 436 441 431 420 414 407 401 393
118 204 201 191 213 210 216 224 228 227 224 227 238 252 311 308 326 319 289 303 345 426 435 426 429 422 417 407 395 388 381 375
203 200 207 212 207 213 226 227 231 230 241 250 254 268 318 326 289 280 347 414 417 414 420 407 398 399 387 386 381 372 367 360
209 201 204 197 221 231 235 236 235 253 260 277 319 318 297 282 332 369 405 417 413 411 404 400 391 384 378 369 363 362 356 346
202 200 212 215 226 216 230 239 247 278 293 317 315 280 319 345 414 421 422 415 409 398 394 388 377 365 355 356 356 350 340 345

GFSFLT1_2pvu_pres_006.txt.gz
Presure
197 197 200 194 193 182 176 195 194 108 147 176 174 199 184 145 184 183 183 170 174 176 183 182 166 145 152 143 139 152 168 182
200 202 205 209 194 200 192 192 98 123 199 194 191 187 181 181 184 175 173 177 171 183 190 182 136 123 194 199 193 202 163 214
214 205 196 194 190 164 190 193 146 106 171 175 177 183 178 166 165 176 186 170 186 154 171 167 199 203 205 187 210 211 208 208
191 190 191 194 194 194 193 187 95 164 180 177 179 148 183 156 173 183 160 194 182 175 203 208 206 206 205 202 207 213 211 216
196 199 199 188 181 147 182 182 188 187 168 169 180 181 179 188 177 194 194 159 206 207 207 205 204 206 208 222 211 204 203 212
181 175 171 180 170 167 182 171 168 162 164 178 107 139 188 198 197 139 204 204 212 210 197 213 197 202 188 218 235 235 249 234
169 166 176 176 174 181 177 175 175 181 137 117 132 195 166 205 206 209 206 195 199 208 207 225 234 194 206 232 246 259 258 269
179 183 173 171 175 177 172 178 165 170 113 153 152 186 203 205 204 212 216 216 221 215 221 214 226 229 238 244 265 279 289 278
128 175 173 173 177 115 180 129 161 198 137 123 206 198 194 206 198 218 221 227 219 222 223 223 235 241 256 280 299 302 326 322
183 178 174 182 170 179 173 187 197 193 194 195 203 207 202 210 213 217 226 225 226 226 228 246 253 273 303 315 323 323 329 323
173 179 172 171 179 172 132 201 196 192 197 205 207 207 205 214 213 216 228 223 225 237 257 260 294 319 321 324 336 340 338 310
177 154 168 180 183 111 198 194 203 202 203 203 213 197 216 218 213 227 223 227 249 256 278 326 336 338 343 339 334 329 418 408
174 160 101 180 200 192 196 203 201 202 121 125 128 218 217 212 231 219 244 258 274 336 349 349 338 290 299 422 411 435 434 422
153 189 200 191 194 197 200 201 167 119 129 136 221 215 215 232 247 254 270 289 342 352 281 286 325 423 410 404 401 411 409 407
198 190 195 198 197 194 202 203 204 204 213 213 217 238 247 263 291 314 325 352 272 282 304 435 433 408 391 406 399 393 383 382
194 193 192 191 195 201 202 206 210 215 208 243 255 252 286 323 322 329 284 283 294 409 426 414 399 401 400 390 382 376 367 362
192 190 193 198 202 204 210 206 220 216 253 261 262 334 315 322 261 288 280 383 435 421 405 410 397 391 386 380 370 363 361 355
182 192 200 200 210 210 220 217 240 262 315 317 321 321 257 285 284 358 447 427 410 402 403 394 384 377 373 367 360 352 342 340
196 201 211 208 210 224 219 253 282 320 311 301 267 274 283 329 452 437 420 410 401 394 379 370 365 363 361 361 360 357 353 351

GFSFLT1_2pvu_pres_009.txt.gz
Presure
222 223 219 216 216 216 208 195 198 189 191 161 189 175 183 175 183 183 179 174 163 183 175 179 187 190 194 166 201 207 193 136
233 232 218 202 201 197 202 200 199 194 186 121 97 184 180 180 168 182 180 183 185 194 197 200 203 118 145 202 153 202 123 208
199 193 197 205 206 198 190 182 184 186 103 170 187 177 177 176 172 128 126 202 201 206 204 204 205 206 205 206 205 204 204 203
81 210 208 187 180 185 170 171 184 183 183 179 184 179 181 193 200 168 203 188 204 196 194 200 194 196 194 194 205 199 201 196
207 194 182 180 182 173 190 186 181 179 179 178 178 179 179 142 193 134 193 192 139 199 203 203 200 205 203 219 224 229 196 223
195 181 183 173 169 141 185 184 182 181 181 170 125 169 181 138 143 125 192 194 201 209 209 198 151 224 192 220 225 228 225 220
179 181 175 172 174 179 180 179 180 173 179 163 169 174 123 144 175 192 202 201 201 211 214 213 206 228 224 214 231 237 226 227
182 178 181 178 176 182 178 179 179 175 178 184 171 192 112 194 202 200 207 205 212 212 217 218 219 221 224 230 239 241 250 258
183 180 182 174 173 179 181 180 178 183 182 186 198 194 195 197 199 207 212 214 160 225 213 221 228 238 252 256 256 265 272 281
179 177 175 175 176 182 181 168 181 174 199 190 195 201 202 204 208 125 139 177 223 214 230 235 250 259 261 272 296 331 333 371
182 179 184 170 182 181 150 180 155 199 191 198 199 201 207 214 197 210 225 228 216 238 251 260 285 310 307 340 365 329 284 285
180 181 185 182 132 180 185 196 197 203 195 196 204 210 213 211 222 224 226 234 248 253 265 305 281 345 274 272 289 300 391 439
183 179 179 124 182 189 195 201 190 193 199 204 205 205 214 226 232 232 241 254 271 334 339 350 268 279 289 437 428 423 411 401
176 133 133 188 191 200 197 194 192 200 202 206 204 224 236 215 241 253 346 339 292 354 340 296 290 448 433 427 414 406 406 397
105 121 186 194 195 187 195 187 201 202 212 205 227 226 247 260 293 313 268 297 311 279 295 451 439 425 415 408 398 397 395 391
134 179 125 194 186 195 188 203 205 209 225 236 249 251 279 364 275 339 299 300 315 420 437 429 419 409 408 390 380 370 368 369
157 105 117 198 199 191 203 208 226 233 251 257 268 351 361 353 293 297 316 395 437 420 416 414 402 390 381 366 363 361 358 359
149 188 193 192 197 210 219 235 242 283 349 349 346 346 299 305 314 339 433 429 409 400 406 393 382 366 365 355 352 350 348 346
195 192 189 208 211 232 233 243 325 327 295 271 295 302 303 323 401 428 412 403 390 404 385 375 361 355 353 341 371 469 461 457

GFSFLT1_2pvu_pres_015.txt.gz
Presure
193 228 207 209 212 232 219 202 215 210 202 207 219 198 189 190 182 177 185 191 193 180 190 178 186 192 107 197 205 195 158 196
224 231 232 211 228 216 201 213 203 202 209 216 190 186 183 181 188 186 185 181 185 191 187 156 125 191 193 203 106 120 122 194
230 214 214 225 222 213 207 203 206 204 217 193 183 179 184 183 195 191 187 192 193 188 195 192 202 143 200 201 117 195 200 203
218 227 224 222 209 203 199 204 206 209 197 186 181 182 185 194 191 193 196 192 197 197 206 194 200 119 197 161 195 211 208 210
214 225 200 203 199 195 202 203 195 187 182 176 184 190 197 192 197 143 191 184 198 195 196 207 201 206 210 212 210 213 225 120
203 191 199 199 197 200 202 194 191 181 189 185 195 192 195 195 145 191 183 200 195 197 208 201 196 206 214 217 219 232 192 134
197 193 191 190 196 194 190 193 190 176 191 186 190 192 191 147 188 198 194 201 201 202 204 208 208 220 221 230 241 242 247 249
197 190 190 188 186 192 191 184 193 191 197 197 193 190 193 152 194 197 197 195 198 211 212 215 223 225 238 243 258 255 269 274
191 192 187 187 190 183 190 192 184 193 187 186 189 191 183 120 197 198 195 207 194 211 217 229 243 250 261 273 294 301 339 306
190 182 185 183 194 196 190 191 190 188 185 189 116 99 195 191 195 199 196 210 217 225 234 250 261 269 280 284 301 342 327 331
190 191 198 193 190 191 190 162 188 188 183 197 167 191 194 195 195 204 222 233 225 241 248 268 304 288 351 347 342 340 340 382
198 200 190 190 183 181 184 155 154 184 186 186 194 195 195 205 205 214 234 239 248 261 291 282 352 351 349 420 446 429 418 416
182 195 188 180 181 181 191 183 183 193 194 195 193 198 203 213 215 228 256 261 297 284 274 357 344 453 439 427 413 405 401 396
185 182 183 183 188 182 182 189 185 193 194 194 203 205 220 226 259 272 269 316 391 362 344 448 475 524 495 466 437 414 397 395
188 185 188 182 179 183 187 192 196 195 196 206 206 211 255 252 264 274 328 377 340 448 424 438 449 411 466 439 417 400 394 380
175 182 183 184 182 181 192 200 200 199 209 205 239 247 260 257 290 325 366 325 442 456 435 406 447 426 421 405 391 374 365 358
181 171 183 181 183 191 201 206 209 218 236 242 244 263 252 306 337 371 336 451 440 406 404 457 417 397 389 371 356 351 351 352
178 182 183 182 200 200 197 214 222 237 242 245 258 254 296 331 360 374 451 472 435 448 461 407 379 366 357 353 348 348 347 358
179 186 196 201 200 206 217 214 227 232 250 258 255 266 335 358 378 430 407 436 454 418 389 369 359 351 348 348 341 351 356 384

GFSFLT1_2pvu_pres_018.txt.gz
Presure
230 230 169 134 208 245 216 207 209 211 222 215 211 208 201 205 205 218 197 192 183 183 183 188 193 189 195 185 188 198 157 146
190 135 136 213 211 205 219 226 211 227 216 209 198 203 202 203 206 205 178 182 183 188 191 196 175 184 182 182 197 192 197 194
242 233 220 216 216 206 207 206 228 213 205 199 193 198 203 205 191 186 183 185 188 194 194 202 189 185 197 198 201 198 195 192
210 218 218 203 203 206 224 207 205 199 198 194 202 200 195 195 193 185 196 197 201 204 197 195 198 204 205 195 195 196 201 210
223 208 209 215 218 208 206 186 194 194 199 203 195 196 195 191 197 193 199 195 199 200 205 207 208 203 194 202 206 219 224 226
211 210 209 211 200 195 197 193 194 195 184 195 182 194 193 193 199 196 195 194 197 111 205 207 196 206 213 219 213 226 218 231
216 215 208 199 198 200 194 196 191 190 185 188 195 191 194 188 190 188 191 92 187 199 202 202 208 213 218 222 227 231 248 264
207 208 201 202 191 191 186 192 191 189 194 195 190 185 187 159 190 192 196 196 205 206 206 207 212 219 225 239 256 271 271 287
220 204 189 188 186 192 187 189 189 203 191 180 185 195 185 192 189 195 204 196 195 207 215 214 218 237 259 269 274 294 309 354
200 200 194 184 182 182 198 206 192 184 183 189 188 185 182 189 194 196 202 207 213 218 237 256 263 269 258 283 305 331 368 360
189 193 193 200 207 194 188 187 187 192 194 189 184 183 188 195 202 203 204 207 227 242 252 269 258 278 313 367 359 446 454 518
211 208 206 197 196 192 183 190 181 187 179 190 187 184 195 202 204 204 206 225 256 258 269 263 279 368 371 454 433 435 405 456
203 202 201 190 177 184 195 190 186 182 185 187 186 194 204 203 205 222 231 253 265 272 277 310 362 443 447 434 441 397 442 423
203 198 176 175 179 181 190 183 188 181 190 186 203 206 201 207 229 246 254 272 262 282 315 377 455 418 420 414 490 430 406 391
201 199 194 193 184 187 186 182 181 185 189 201 207 201 214 228 249 253 273 268 283 395 420 474 415 452 434 450 408 386 371 360
199 198 193 194 189 182 182 185 188 194 201 206 202 218 230 254 256 266 271 338 379 459 436 414 401 465 429 395 375 361 353 351
200 193 193 183 182 182 184 193 196 195 206 208 223 240 253 257 279 267 394 373 469 429 404 397 381 391 382 367 354 349 347 349
202 195 187 181 181 190 195 204 205 205 213 234 238 250 260 273 265 402 428 466 427 400 391 381 390 371 363 352 351 346 341 339
195 190 189 184 191 197 206 209 203 221 234 236 255 262 274 266 398 489 464 432 401 383 374 386 369 363 351 348 343 335 351 353

GFSFLT1_2pvu_pres_021.txt.gz
Presure
211 237 261 236 235 231 217 215 212 213 208 210 220 202 206 207 219 213 195 193 195 205 198 193 186 181 189 188 195 196 197 192
234 234 254 226 230 251 214 215 204 206 206 210 205 219 212 228 190 190 194 203 199 194 193 194 193 190 193 196 193 190 192 201
222 216 229 217 216 208 209 212 203 211 203 198 195 213 201 184 191 196 189 193 191 195 196 196 196 196 193 191 195 199 196 195
229 213 213 214 212 213 209 215 210 205 201 200 198 185 188 192 195 192 188 191 202 190 190 200 198 143 198 204 207 203 212 216
218 219 219 222 218 219 218 206 204 200 202 194 192 193 192 197 194 190 201 197 183 195 196 191 198 204 207 212 215 211 212 222
217 217 222 233 229 226 211 210 209 209 216 189 192 197 193 199 197 206 195 197 203 199 197 202 204 204 210 210 204 219 231 227
254 259 259 246 232 223 222 214 201 193 196 194 189 194 195 195 194 192 198 192 192 199 195 196 201 213 207 205 224 230 255 261
204 208 207 209 204 200 195 196 193 191 190 193 200 206 200 188 197 193 188 186 192 194 194 204 208 205 213 224 251 265 275 273
202 202 195 188 188 191 193 194 198 203 213 205 197 188 181 195 186 184 189 187 193 202 206 213 208 221 235 262 270 278 276 286
189 192 192 197 201 203 204 202 199 194 196 178 180 184 192 186 184 192 185 194 200 202 211 213 234 267 269 282 279 290 319 458
203 205 206 206 207 206 202 200 199 186 174 182 191 193 187 183 187 192 194 205 210 210 223 252 265 274 271 282 298 459 441 453
198 194 190 187 209 204 204 201 202 198 199 194 191 186 183 192 197 197 207 208 214 249 245 261 278 271 290 442 453 471 445 399
199 193 190 186 205 212 208 205 201 193 194 194 184 192 194 196 204 204 218 233 251 242 274 277 270 315 469 455 491 406 394 384
189 191 194 199 192 199 195 210 205 202 189 193 194 196 198 203 217 225 233 266 271 267 286 292 494 474 456 436 398 386 408 389
225 230 230 192 197 203 207 201 194 189 191 196 200 204 207 222 227 247 272 263 270 277 372 506 471 440 408 393 387 385 379 370
218 214 211 205 205 199 192 190 191 195 204 208 206 226 226 229 242 254 260 266 276 429 499 463 428 398 374 386 379 373 363 355
216 205 195 204 198 184 191 193 197 205 204 218 227 223 231 241 257 255 260 272 431 493 462 427 391 367 388 376 367 355 352 346
210 208 200 190 194 194 194 204 201 225 222 221 228 229 238 257 263 261 292 429 484 468 423 389 365 355 380 368 350 349 341 330
198 189 195 200 195 202 205 212 220 216 229 233 230 236 256 269 260 276 403 473 461 429 388 357 339 384 372 353 347 336 324 338

GFSFLT1_2pvu_pres_024.txt.gz
Presure
209 211 206 204 206 231 240 226 221 221 209 201 219 216 207 206 211 208 205 203 204 193 191 193 193 192 188 187 199 184 181 193
209 212 211 227 229 224 214 223 180 223 237 236 210 204 204 213 205 200 203 201 194 191 185 197 191 184 192 196 188 190 95 155
224 223 231 219 227 249 242 226 239 208 207 208 211 214 214 203 204 204 199 186 185 192 190 194 200 195 191 194 188 191 193 195
218 229 240 227 222 208 212 216 213 208 214 216 215 203 202 202 197 194 188 191 185 192 197 194 185 184 195 188 193 190 192 195
224 215 220 222 183 216 216 216 217 224 221 217 215 206 204 202 201 192 187 187 194 199 197 183 197 196 192 202 195 203 195 213
225 245 246 249 238 229 223 215 216 222 210 206 200 193 188 188 191 195 202 209 200 196 186 206 200 199 202 204 205 210 212 217
182 203 208 208 207 208 203 197 193 191 191 195 198 202 204 206 205 201 193 183 191 208 209 201 200 203 203 207 208 216 219 220
202 203 206 202 193 201 208 214 219 218 215 212 211 209 208 208 207 210 210 212 206 200 199 195 201 202 206 213 217 218 262 273
206 204 202 202 200 203 201 199 200 200 198 211 215 216 213 210 207 205 203 199 195 188 198 201 207 206 213 218 282 276 291 297
197 194 193 194 191 198 202 191 198 195 201 196 198 201 195 206 204 203 194 188 188 198 197 205 208 219 267 281 273 290 281 348
198 198 198 191 191 189 194 189 192 194 203 195 194 202 203 194 190 186 186 194 195 207 222 231 256 268 277 279 286 289 504 475
200 195 192 188 185 218 219 225 229 225 192 200 198 193 188 188 188 186 204 215 232 249 257 254 276 257 285 289 434 480 451 425
216 223 231 229 227 227 223 196 216 207 204 201 189 190 188 197 203 214 213 236 256 248 274 246 274 274 294 492 469 439 407 387
217 227 226 236 228 231 212 203 205 198 191 194 191 196 207 214 215 231 245 248 259 259 271 261 279 401 489 465 427 395 373 381
225 245 241 228 222 212 203 187 189 194 194 200 205 214 215 229 230 248 250 249 264 244 259 275 408 473 459 418 385 361 352 385
221 234 234 220 205 189 189 183 188 198 207 219 214 218 223 217 240 242 245 244 241 255 274 339 452 451 413 377 358 353 391 372
217 243 206 201 190 190 184 184 193 208 203 215 219 218 215 227 244 251 255 248 290 278 372 454 452 415 383 362 352 381 366 361
204 203 200 197 199 194 208 203 212 203 211 220 222 222 225 245 253 239 244 276 294 378 458 450 419 384 366 354 365 364 354 347
193 195 195 189 187 210 201 215 202 211 214 219 220 224 240 251 239 232 278 308 334 464 446 425 389 371 357 354 366 355 346 325

GFSFLT1_2pvu_pres_030.txt.gz
Presure
211 208 208 208 209 205 203 198 198 203 195 196 215 200 219 209 222 219 209 214 210 215 210 196 202 194 201 202 205 207 210 210
203 205 208 205 204 206 206 236 227 224 247 219 195 219 234 214 205 217 221 225 222 186 195 200 204 209 211 214 212 211 210 211
214 216 221 233 223 214 217 219 217 234 229 224 220 213 215 241 221 198 197 196 194 203 203 194 196 199 199 200 195 199 199 199
230 221 213 214 215 213 220 223 215 232 234 229 225 210 198 194 198 200 193 198 198 195 194 195 190 193 198 199 196 196 202 207
212 208 210 219 223 236 228 220 215 206 204 202 201 202 202 193 193 195 186 192 192 193 195 215 225 225 215 209 205 203 195 198
214 216 236 226 218 210 203 201 201 201 198 197 196 196 196 196 200 194 191 200 236 236 224 211 195 197 201 201 208 211 209 209
225 217 207 201 201 198 202 207 196 198 199 197 202 202 200 208 211 244 239 231 221 209 203 199 195 193 199 202 207 216 212 214
200 200 200 208 203 198 202 192 193 201 195 219 232 241 237 230 244 244 213 203 200 194 191 198 193 202 202 205 206 217 240 267
197 208 195 199 200 190 196 201 205 217 224 229 243 248 247 234 212 203 201 194 197 199 195 189 200 206 207 195 258 257 254 246
198 201 197 193 196 193 215 219 214 211 214 218 221 230 207 202 195 194 195 194 192 188 204 209 214 229 244 257 255 251 248 277
198 193 201 208 204 204 205 203 199 201 202 209 202 203 196 196 193 194 187 188 184 206 217 231 233 246 259 262 229 253 282 286
198 209 202 199 201 206 204 214 215 215 210 207 186 191 194 190 185 188 185 187 221 221 227 234 260 258 259 270 275 276 266 295
207 201 201 196 199 194 212 217 221 210 203 202 203 190 187 191 200 189 208 215 218 237 250 251 245 218 244 259 267 270 314 423
200 192 193 192 207 201 209 214 211 195 210 203 199 195 198 184 210 212 222 226 235 243 253 257 224 230 265 287 277 391 399 450
191 186 193 198 201 209 203 197 211 222 202 192 194 197 202 212 207 213 227 226 240 194 242 228 254 275 279 271 337 320 413 433
196 197 187 191 205 204 193 211 225 204 194 202 195 187 204 208 221 227 228 243 223 259 240 249 271 290 271 340 318 423 434 416
197 190 187 200 202 199 216 226 200 197 197 198 200 205 209 215 226 227 248 257 261 249 233 267 273 265 347 313 452 438 420 398
192 189 196 202 204 204 223 202 199 195 194 202 205 212 215 227 226 246 258 247 260 268 246 256 266 317 314 402 435 425 402 378
195 198 197 202 208 219 211 202 200 198 200 207 213 214 226 229 243 258 242 240 257 285 283 273 292 318 411 381 433 410 384 361

GFSFLT1_2pvu_pres_036.txt.gz
Presure
196 193 215 146 202 226 215 212 220 217 219 209 201 200 201 196 203 209 233 218 216 235 236 226 221 214 205 209 205 203 204 204
219 217 237 229 214 214 210 206 198 195 197 196 195 203 209 226 225 209 235 230 222 219 214 204 205 213 207 205 204 213 225 250
198 212 209 214 215 209 201 203 205 196 197 204 217 225 210 215 229 217 215 209 204 201 208 205 207 222 236 264 266 266 254 227
210 206 160 200 201 200 202 201 199 198 207 226 208 222 221 215 210 203 203 206 198 212 218 223 239 240 236 235 224 214 208 207
127 191 205 202 202 203 209 220 226 211 216 226 217 214 204 199 209 211 202 231 217 224 223 221 219 218 217 213 210 202 197 204
216 222 225 229 230 215 209 211 237 224 214 205 197 203 213 195 206 225 233 219 219 224 217 215 210 206 207 203 202 209 204 202
212 210 207 208 222 232 231 217 207 207 202 210 212 211 211 212 209 204 200 199 216 218 228 227 212 204 210 201 205 199 203 205
206 224 231 217 217 211 204 205 207 213 216 207 214 204 199 201 200 210 208 215 217 223 220 217 225 214 206 204 195 207 202 216
216 209 212 210 202 197 207 213 201 212 204 207 200 197 191 194 197 205 210 222 232 232 231 224 209 203 200 207 204 206 222 246
213 211 195 191 203 209 210 206 209 204 203 194 194 193 194 199 194 196 208 223 236 231 220 206 204 205 209 216 224 229 252 265
208 190 202 203 205 206 209 211 208 201 194 194 191 194 196 199 198 209 209 230 230 213 204 201 205 210 223 227 241 257 257 261
201 206 202 204 206 211 205 211 203 191 190 187 187 197 197 201 201 203 222 229 206 203 201 206 214 216 227 238 257 254 270 253
200 201 203 204 212 201 203 212 196 191 191 185 190 193 189 199 202 219 234 202 204 201 207 211 212 225 241 243 259 242 262 265
196 201 203 208 203 201 209 194 194 192 188 190 192 184 198 202 212 236 198 203 201 211 213 215 226 241 249 254 252 269 234 269
197 192 215 192 207 205 197 191 186 187 189 190 189 199 200 209 235 198 204 207 205 210 218 228 243 241 258 241 245 260 267 269
196 204 202 204 207 206 192 187 184 188 191 194 194 198 206 230 200 208 204 207 214 217 238 239 240 255 243 249 256 266 264 262
196 197 200 204 201 192 189 184 191 191 191 192 194 206 205 210 205 201 206 213 217 239 237 242 252 243 255 260 266 274 267 275
202 199 204 205 198 189 183 182 188 191 186 194 203 203 227 213 202 200 212 217 241 240 250 249 245 247 245 256 265 263 310 328
202 209 212 200 192 181 186 192 192 191 196 203 203 224 226 203 204 215 217 238 244 254 266 253 246 253 253 265 302 321 289 333

GFSFLT1_2pvu_pres_039.txt.gz
Presure
129 212 219 194 176 178 157 212 199 200 197 206 201 179 200 216 215 202 195 196 200 200 239 228 214 230 216 207 199 206 208 224
223 222 224 214 205 209 117 115 215 224 217 230 230 212 203 193 189 185 193 195 197 226 226 215 207 204 205 216 214 216 215 218
159 243 212 225 218 205 111 112 224 212 202 200 194 192 198 195 204 209 210 224 226 211 202 196 223 220 208 229 228 231 236 235
217 216 202 213 218 225 213 213 200 202 199 201 200 197 201 205 227 218 222 209 208 194 216 217 213 214 215 216 233 224 222 235
222 219 215 209 202 133 184 195 197 200 200 201 200 202 227 222 222 210 198 193 215 205 203 210 214 222 227 247 242 239 239 229
228 220 218 217 209 208 210 213 215 213 228 224 210 233 223 204 197 193 221 205 207 207 199 198 199 203 224 240 235 232 221 210
214 219 217 216 219 217 213 206 205 217 230 229 214 201 202 205 212 204 202 201 199 197 204 208 209 216 240 232 217 208 203 200
208 209 207 218 206 212 228 225 216 206 199 199 200 203 214 214 207 206 204 201 201 208 209 208 211 239 228 208 207 207 212 223
201 208 217 229 223 217 213 199 191 203 201 209 201 220 218 207 201 196 195 195 194 203 199 209 223 240 205 209 215 214 215 222
216 228 219 212 210 206 193 203 197 195 202 222 217 221 215 199 199 198 196 194 199 200 206 213 236 203 208 210 208 217 220 240
217 212 203 201 200 199 197 198 201 208 219 211 212 217 199 198 195 191 193 192 197 203 207 210 221 208 206 204 213 218 234 247
207 199 201 199 200 198 198 209 216 215 207 203 203 199 194 192 189 188 190 198 199 201 208 208 237 206 198 212 218 227 251 242
203 200 201 194 194 193 203 202 202 200 203 206 208 195 191 188 181 192 195 195 193 207 204 236 224 209 210 218 221 248 255 243
201 199 193 192 192 192 195 200 202 202 204 203 200 191 189 185 195 194 194 192 206 212 234 219 209 207 215 227 245 252 246 240
196 196 195 186 188 194 200 195 197 204 209 210 194 192 184 193 191 194 194 207 211 234 208 211 214 213 234 244 261 254 253 263
195 188 193 197 201 203 207 209 214 213 203 195 192 190 193 193 196 199 208 220 230 208 212 220 215 243 248 270 264 249 258 254
190 193 197 201 196 208 214 206 193 194 191 187 197 199 194 196 205 213 220 235 209 218 220 221 252 259 269 262 250 264 267 216
198 199 204 207 210 202 191 188 187 188 195 199 201 201 200 208 213 220 230 205 222 217 237 253 261 268 254 267 270 266 271 273
200 204 207 208 197 193 193 197 192 198 204 197 204 205 204 210 224 225 206 224 230 251 253 276 263 248 255 254 258 278 284 306

GFSFLT1_2pvu_pres_042.txt.gz
Presure
143 120 146 119 129 128 166 218 206 168 207 200 160 192 200 200 199 186 183 184 197 196 199 207 203 189 205 219 234 214 207 211
124 128 125 132 135 134 216 216 211 197 211 216 190 200 203 205 198 200 196 207 198 189 188 195 202 204 240 207 224 197 219 210
213 196 133 126 180 199 212 228 221 223 213 206 209 207 203 211 215 207 197 202 204 200 198 201 227 213 223 198 200 209 209 205
181 203 217 217 209 214 216 206 217 211 212 202 194 198 208 199 198 194 195 198 196 222 226 228 216 205 202 213 207 205 210 203
226 200 219 212 215 210 214 206 203 213 217 213 207 200 197 200 201 199 199 212 231 224 206 210 192 213 202 210 204 195 203 209
212 225 208 213 214 212 210 219 213 212 206 206 205 204 208 238 233 245 220 205 201 203 216 212 205 209 204 198 198 199 207 211
211 213 220 219 216 218 220 212 216 214 219 218 212 217 229 218 204 204 200 197 202 211 210 204 201 196 201 194 193 205 207 212
221 238 226 218 213 209 211 206 210 210 227 229 215 199 195 202 195 195 200 207 213 209 203 199 199 197 191 197 200 199 215 223
217 214 204 197 211 227 218 228 220 214 206 196 197 196 194 195 205 219 205 205 215 207 200 199 192 191 199 201 202 214 223 234
201 209 211 218 215 219 214 205 202 199 198 194 196 200 212 214 203 205 209 209 203 199 199 191 193 202 202 198 213 220 236 212
210 219 217 221 206 207 203 199 202 194 195 191 206 206 199 201 203 203 210 214 214 196 192 198 195 201 195 210 220 235 209 215
217 229 218 211 205 203 201 195 196 186 192 190 193 198 195 195 214 216 217 210 202 199 200 194 201 200 211 219 233 209 221 221
225 215 206 202 200 202 199 193 193 187 187 193 203 211 212 217 210 204 198 194 195 202 201 205 208 211 221 229 207 220 239 259
203 202 195 194 193 194 197 193 194 199 205 209 206 210 202 194 192 185 193 193 203 206 205 211 218 242 218 212 225 252 265 258
205 198 193 193 196 189 184 193 195 199 202 205 197 185 192 190 194 194 202 206 206 207 214 238 231 210 214 237 250 270 253 263
194 199 193 191 190 189 190 196 202 206 203 196 195 196 191 192 201 207 204 206 211 215 240 213 215 223 249 261 266 256 265 259
195 195 190 191 194 199 210 204 199 205 200 201 199 194 205 202 203 201 211 212 241 229 212 218 241 255 263 265 261 246 261 273
196 193 197 204 212 202 191 201 202 194 191 190 201 200 203 196 208 212 220 235 216 218 227 249 255 260 274 255 256 263 272 284
198 200 202 205 209 195 192 195 189 193 181 201 202 204 209 208 215 220 236 216 221 242 253 254 259 267 257 259 261 282 332 354

GFSFLT1_2pvu_pres_048.txt.gz
Presure
137 123 150 144 129 124 123 144 116 117 118 125 120 125 126 126 188 203 190 204 210 214 207 211 204 206 201 202 194 193 193 215
153 136 237 121 151 144 124 121 120 117 131 123 127 136 206 212 199 209 204 212 213 192 199 195 191 191 195 196 209 225 200 190
121 120 190 143 120 125 113 117 122 123 156 150 226 127 207 211 203 210 201 204 194 191 190 195 220 208 215 198 194 222 216 202
118 155 203 202 183 173 125 118 119 159 130 181 187 200 176 207 206 195 200 214 239 213 216 198 200 200 203 225 210 211 205 192
117 127 146 225 211 127 130 125 192 204 204 204 174 212 211 199 209 204 209 196 194 200 199 207 215 207 210 207 194 199 207 203
188 126 125 153 228 211 220 212 202 196 210 216 208 201 199 207 208 205 205 206 213 205 209 213 211 196 202 205 204 192 209 210
226 222 219 219 218 219 224 217 221 216 206 210 212 212 214 218 216 221 201 199 215 209 207 204 204 201 197 194 201 210 213 209
218 216 215 221 219 220 215 218 216 211 210 209 211 213 200 208 195 218 212 204 207 204 202 196 194 193 195 203 209 206 201 202
215 215 217 218 217 214 214 213 222 215 214 207 201 202 200 225 214 208 203 209 196 198 198 195 196 202 211 208 207 202 192 195
215 216 220 222 220 210 211 203 199 196 204 203 213 220 206 204 200 196 201 195 195 190 192 197 211 204 202 196 189 192 202 207
210 212 211 209 204 200 200 203 178 202 204 204 208 202 194 194 197 196 195 192 188 193 201 205 194 195 194 189 189 198 214 215
210 231 203 205 205 185 200 200 197 223 213 202 201 196 193 196 191 196 191 189 194 211 188 195 193 194 188 194 203 215 217 215
203 203 202 203 203 203 212 207 221 213 204 198 198 193 209 194 190 188 191 201 208 191 191 194 193 193 194 207 208 217 221 238
209 208 206 205 216 206 227 226 205 198 194 194 191 191 202 190 184 196 201 210 190 188 190 191 187 193 208 206 217 222 233 226
213 217 214 213 202 232 212 203 199 195 194 198 196 201 192 198 201 203 204 186 192 190 192 199 196 211 210 213 223 225 228 232
208 206 205 223 228 215 209 200 198 199 198 199 197 200 203 202 204 200 194 191 190 195 203 201 210 214 210 220 222 233 227 243
209 209 244 231 206 206 202 203 200 197 200 203 201 196 198 199 194 192 192 188 197 209 203 209 218 209 223 227 237 226 242 248
219 250 230 213 207 202 203 201 197 199 199 195 193 195 195 192 194 193 193 205 204 209 206 213 210 223 220 234 229 234 250 257
246 219 213 207 202 204 202 203 197 196 189 193 198 199 200 197 196 201 205 204 210 212 211 212 222 221 242 229 231 250 254 249